INTELSAT 20 (IS-20) (38740 NORAD) Tracking and Keplerian Element Data

This shows tracking and keplerian element data for the satellite.

Feedback or suggestion? Click here.




ElementValue
Catalog38740
NameINTELSAT 20 (IS-20)
Epoch Orbit2423
Epoch Day80.90882594
Epoch Year2019
RAAN137.0405
Inclination0.0178
Eccentricity0.0002133
Argument of Perigee42.7925
Mean Anonmoly34.9514
Mean Motion1.00271781
Decay Rate-5E-07
L11 38740U 12043A 19080.90882594 -.00000050 00000-0 00000-0 0 9991
L22 38740 0.0178 137.0405 0002133 42.7925 34.9514 1.00271781 24232

Live tracking and technical data element details for INTELSAT 20 (IS-20) (NORAD 38740). INTELSAT 20 (IS-20) can be tracked NOW for your location showing map with azimuth and elevation plus other details from your city location.

Track the satellite on the map from your city or location and see movement details for azimuth, elevation, latitude, longitude, range, height, and movement on the map or in text.







IsCatalogInMostPopularTable: catalog: 38740, numindb: 217
Update: records affected: 1



GetName: 38740 INTELSAT 20 (IS-20)

Hit Count: updated at: Sat, 23 Mar 2019 02:27:49 GMT